[[{"header":{"parameterUnit":"m.s-1","parameterCategory":1,"la1":30.2992,"la2":30.254,"lo1":-89.0895,"lo2":-89.0443,"dy":0.0025,"dx":0.0025,"nx":19,"ny":19,"refTime":"2026-04-01T21:00:00:Z","depth":0,"parameterNumber":2,"parameterNumberName":"U-component_of_WINDS"},"data":[0,0,0,-3.8513,-3.8517,-3.8683,-3.8684,-3.8893,-3.8895,0,0,0,0,0,0,0,0,0,0,0,-3.8461,-3.8463,-3.8513,-3.8517,-3.8683,-3.8684,-3.8893,-3.8895,0,0,0,0,0,0,0,0,0,0,0,-3.8461,-3.8462,-3.8464,-3.8517,-3.8683,-3.8684,-3.8893,-3.8768,0,0,0,0,0,0,0,0,0,0,-3.8607,-3.8557,-3.8462,-3.8464,-3.8518,-3.8683,-3.8684,-3.8762,-3.8776,-3.8816,0,-3.8851,0,-3.8876,-3.8909,-3.891,0,0,0,-3.8519,-3.8545,-3.8593,-3.8464,-3.852,-3.8682,-3.8609,-3.877,-3.8786,-3.8835,-3.8854,-3.8862,-3.888,-3.891,-3.8911,-3.9135,-3.9136,0,0,-3.851,-3.849,-3.8582,-3.8602,-3.8576,-3.8603,-3.8614,-3.878,-3.88,-3.8855,-3.8867,-3.8883,-3.8912,-3.8913,-3.9134,-3.9135,0,0,0,-3.8482,-3.8483,-3.8527,-3.8594,-3.8624,-3.8608,-3.862,-3.8792,-3.8808,-3.8869,-3.8886,-3.8913,-3.8915,-3.9133,-3.9135,-3.916,0,0,0,-3.8477,-3.8467,-3.8522,-3.8512,-3.8621,-3.871,-3.8629,-3.8797,-3.8816,-3.8885,-3.8913,-3.8917,-3.9132,-3.9134,-3.9157,-3.9175,0,0,0,-3.8451,-3.8464,-3.8487,-3.851,-3.8581,-3.8708,-3.8733,-3.8801,-3.8826,-3.891,-3.8918,-3.9132,-3.9134,-3.9155,-3.9171,-3.9227,0,0,0,-3.8419,-3.8509,-3.8487,-3.8595,-3.858,-3.8723,-3.8732,-3.884,-3.8915,-3.8914,-3.9132,-3.9134,-3.9154,-3.9168,-3.9224,-3.9268,-3.9286,0,0,-3.8521,-3.852,-3.8585,-3.8571,-3.8712,-3.8699,-3.8845,-3.8933,-3.8961,-3.9076,-3.9081,-3.9158,-3.9171,-3.9226,-3.9393,-3.9406,0,0,0,-3.8611,-3.8657,-3.8699,-3.8769,-3.8839,-3.8899,-3.8967,-3.9,-3.9099,-3.9015,-3.9195,-3.9203,-3.9237,-3.9259,-3.927,-3.9299,-3.9144,-3.9144,-3.9144,-3.8726,-3.8755,-3.8864,-3.8913,-3.8982,-3.9051,-3.9109,-3.9165,-3.9176,-3.9218,-3.9251,-3.9349,-3.9374,-3.9383,-3.9413,-3.9279,-3.9279,-3.9279,-3.928,-3.8877,-3.8946,-3.8958,-3.9067,-3.9098,-3.9191,-3.9262,-3.9266,-3.9357,-3.9326,-3.9357,-3.9319,-3.9397,-3.9424,-3.9282,-3.9281,-3.9281,-3.9281,-3.9281,-3.8954,-3.8992,-3.903,-3.9135,-3.9212,-3.926,-3.9346,-3.9372,-3.9397,-3.9428,-3.9465,-3.9465,-3.9466,-3.9445,-3.9445,-3.9445,-3.9446,-3.9446,-3.9446,-3.9017,-3.906,-3.9129,-3.921,-3.9258,-3.9325,-3.9397,-3.9446,-3.9506,-3.9518,-3.9519,-3.9524,-3.94,-3.9366,-3.9451,-3.945,-3.945,-3.9449,-3.9449,-3.9156,-3.9128,-3.9235,-3.9283,-3.9381,-3.9455,-3.9488,-3.9585,-3.9629,-3.9671,-3.9671,-3.9575,-3.9576,-3.9567,-3.954,-3.9665,-3.9665,-3.9665,-3.9665,-3.9218,-3.9222,-3.9336,-3.9411,-3.9489,-3.9529,-3.9648,-3.9705,-3.976,-3.979,-3.9776,-3.9743,-3.9733,-3.974,-3.9727,-3.9702,-3.9865,-3.9865,-3.9866,-3.9304,-3.9317,-3.9412,-3.9465,-3.9543,-3.961,-3.9723,-3.981,-3.9867,-3.9874,-3.9813,-3.9804,-3.9751,-3.9733,-3.9735,-3.9715,-3.9669,0,0]},{"header":{"parameterUnit":"m.s-1","parameterCategory":1,"la1":30.2992,"la2":30.254,"lo1":-89.0895,"lo2":-89.0443,"dy":0.0025,"dx":0.0025,"nx":19,"ny":19,"refTime":"2026-04-01T21:00:00:Z","depth":0,"parameterNumber":3,"parameterNumberName":"V-component_of_WINDS"},"data":[0,0,0,3.8501,3.8504,3.8616,3.8616,3.8762,3.8763,0,0,0,0,0,0,0,0,0,0,0,3.8471,3.8472,3.8501,3.8504,3.8616,3.8616,3.8762,3.8763,0,0,0,0,0,0,0,0,0,0,0,3.847,3.8471,3.8473,3.8504,3.8616,3.8617,3.8761,3.8676,0,0,0,0,0,0,0,0,0,0,3.8566,3.854,3.8471,3.8473,3.8505,3.8616,3.8617,3.8672,3.8681,3.8712,0,3.8742,0,3.8755,3.8773,3.8774,0,0,0,3.8502,3.8533,3.8561,3.8473,3.8506,3.8616,3.8565,3.8677,3.8688,3.8725,3.8744,3.875,3.8758,3.8774,3.8775,3.8969,3.897,0,0,3.8495,3.8492,3.8554,3.8568,3.8552,3.8561,3.8568,3.8683,3.8703,3.8745,3.8753,3.876,3.8775,3.8776,3.8968,3.8969,0,0,0,3.8479,3.8487,3.8513,3.8562,3.8582,3.8565,3.8573,3.8698,3.8707,3.8754,3.8762,3.8776,3.8778,3.8967,3.8968,3.9016,0,0,0,3.8475,3.8478,3.851,3.8509,3.858,3.8642,3.8585,3.8699,3.8712,3.8761,3.8776,3.8779,3.8965,3.8967,3.9012,3.9039,0,0,0,3.8462,3.8476,3.8494,3.8508,3.8557,3.864,3.8655,3.8702,3.8717,3.8774,3.878,3.8965,3.8967,3.9009,3.9033,3.909,0,0,0,3.8447,3.8532,3.8494,3.8593,3.8556,3.8669,3.8655,3.8739,3.8794,3.8777,3.8966,3.8968,3.9008,3.903,3.9086,3.9137,3.9158,0,0,3.8553,3.8545,3.8604,3.8573,3.8692,3.8652,3.8779,3.8831,3.8839,3.8925,3.8929,3.9013,3.9033,3.9089,3.9274,3.9291,0,0,0,3.8636,3.8678,3.871,3.8764,3.8808,3.8848,3.8882,3.8902,3.8975,3.8883,3.9049,3.906,3.9094,3.9118,3.9132,3.9161,3.8979,3.8979,3.8978,3.8779,3.8787,3.8885,3.8907,3.8959,3.8995,3.9037,3.907,3.906,3.91,3.9125,3.9237,3.9265,3.9276,3.9306,3.9152,3.9152,3.9152,3.9153,3.8936,3.8997,3.8986,3.9077,3.9084,3.916,3.9198,3.9189,3.9261,3.9218,3.9247,3.92,3.9294,3.9321,3.9156,3.9156,3.9155,3.9155,3.9154,3.9031,3.9062,3.9086,3.9166,3.9226,3.9244,3.9315,3.9318,3.9322,3.9351,3.9379,3.9379,3.9379,3.9364,3.9365,3.9365,3.9366,3.9366,3.9366,3.9121,3.9147,3.9206,3.9262,3.9298,3.9345,3.9384,3.9418,3.9458,3.9455,3.9455,3.9443,3.9302,3.9266,3.9372,3.9371,3.937,3.937,3.9369,3.9277,3.9243,3.9335,3.9371,3.9438,3.9498,3.9503,3.9574,3.9603,3.9638,3.962,3.9515,3.9507,3.9496,3.9467,3.9618,3.9618,3.9618,3.9618,3.9358,3.9355,3.9451,3.9509,3.9566,3.9581,3.9684,3.9716,3.9742,3.976,3.9739,3.9701,3.9689,3.9688,3.9673,3.9646,3.9839,3.9839,3.9839,3.9456,3.9459,3.9547,3.9574,3.9627,3.9672,3.977,3.9837,3.9859,3.9848,3.9775,3.9766,3.9704,3.9684,3.9671,3.9647,3.9597,0,0]}]]